Location: Newark
(30.1000°N, 109.4667°E)
Time: 13:29:21
(UTC+00:00)

N. Korean satellite - Visible Passes

Search period start: 23 January 2020 00:00
Search period end: 02 February 2020 00:00
Orbit: 454 x 507 km, 97.2° (Epoch: 22 January)

Date Brightness Start Highest point End Pass type
(mag) Time Alt. Az. Time Alt. Az. Time Alt. Az.
23 Jan 10.3 10:54:16 10° WSW 10:54:58 10° W 10:55:41 10° W visible
23 Jan 6.6 22:22:59 10° NNE 22:26:34 84° ESE 22:30:12 10° S visible
24 Jan 8.4 21:57:48 10° NNE 22:01:05 33° E 22:04:23 10° SSE visible
25 Jan 9.8 21:33:24 10° ENE 21:35:30 15° E 21:37:37 10° SE visible
25 Jan 7.8 23:05:58 10° NNW 23:08:47 22° WNW 23:11:38 10° SW visible
26 Jan 6.7 22:39:54 10° N 22:43:25 51° WNW 22:46:57 10° SSW visible
27 Jan 9.9 10:44:26 10° SW 10:46:17 14° W 10:48:09 10° WNW visible
27 Jan 7.1 22:14:23 10° NNE 22:17:58 62° E 22:21:35 10° S visible
28 Jan 8.9 21:49:22 10° NE 21:52:26 25° E 21:55:31 10° SSE visible
29 Jan 10.1 21:25:35 10° ENE 21:26:50 11° E 21:28:05 10° ESE visible
29 Jan 7.4 22:57:02 10° NNW 23:00:12 29° WNW 23:03:24 10° SW visible
30 Jan 6.5 22:31:11 10° N 22:34:48 71° WNW 22:38:27 10° SSW visible
31 Jan 7.7 22:05:49 10° NNE 22:09:19 45° E 22:12:52 10° S visible
01 Feb 9.4 21:41:02 10° NE 21:43:46 20° E 21:46:31 10° SE visible
